Location: Brookfield Center
(41.2406°N, 80.5579°W)
Time: 12:58:14
(UTC+00:00)

Cosmos 1269 Rocket - Pass Details

Date: 18 January 2020
Orbit: 773 x 779 km, 74.1° (Epoch: 16 February)

Event Time Altitude Azimuth Distance (km) Brightness Sun altitude
Rises 00:04:32 0° 343° (NNW) 3,258 7.3 -19.4°
Reaches altitude 10° 00:06:57 10° 346° (NNW) 2,327 6.5 -19.8°
Maximum altitude 00:12:12 64° 68° (ENE) 855 3.9 -20.8°
Enters shadow 00:17:05 12° 150° (SSE) 2,188 6.1 -21.7°
